Find Starlink 11535

NORAD ID: 62595 Int'l Des: 2025-008 Owner: SPXS Country: US Constellation: starlink operational
LEOCIRCULAR

リアルタイム位置

3D地球を読み込み中...

Starlink 11535について

説明を読み込み中...

次回通過

Passes for default location (London). Set your location on the main map for personalized predictions.

高度履歴

Loading altitude history...

軌道要素

1 62595U 25008J 26124.54790496 .00173163 00000-0 13246-2 0 9990
2 62595 43.0005 149.0768 0001224 285.3283 74.7449 15.70847676 75925
Epoch: May 4, 2026 • Age: 5 hours

現在のステータス

高度 359.8 km
速度 7.70 km/s
衛星直下点 41.33°N, 122.87°E
打ち上げ日 Jan 13, 2025
運用期間 1.3 years
タイプ internet

技術仕様

分類 Payload
質量 960.00 kg
乾燥質量 910.00 kg
総質量 960.00 kg
長さ 0.30 m
直径 4.10 m
スパン 29.00 m
形状 Box + pan
製造者 SPXS
バスタイプ Starlink V2MD
フェーズステータス In Orbit
所有者/国 SPXS/US

Most Searched